Location: ?????
(54.9266°N, 38.5527°E)
Time: 04:23:26
(UTC+00:00)

Cosmos 2237 Rocket - Pass Details

Date: 14 April 2024
Orbit: 833 x 851 km, 71.0° (Epoch: 20 May)

Event Time Altitude Azimuth Distance (km) Brightness Sun altitude
Exits shadow 01:29:31 - 216° (SW) 2,725 4.3 -8.1°
Reaches altitude 10° 01:30:13 10° 216° (SW) 2,460 4.1 -8.0°
Maximum altitude 01:35:53 81° 304° (NW) 863 2.3 -7.3°
Drops below altitude 10° 01:41:37 10° 33° (NNE) 2,486 5.7 -6.5°
Sets 01:44:05 0° 34° (NE) 3,427 6.6 -6.2°
